Location: San Vito
(41.8833°N, 12.9833°E)
Time: 19:41:23
(UTC+00:00)

ATLAS CENTAUR R/B - Pass Details

Date: 17 November 2019
Orbit: 457 x 691 km, 64.7° (Epoch: 30 November)

Event Time Altitude Azimuth Distance (km) Brightness Sun altitude
Rises 04:46:47 0° 218° (SW) 3,048 4.9 -13.6°
Reaches altitude 10° 04:49:08 10° 220° (SW) 2,137 4.1 -13.2°
Maximum altitude 04:54:01 70° 304° (NW) 729 1.7 -12.3°
Drops below altitude 10° 04:58:49 10° 29° (NNE) 2,097 4.5 -11.4°
Sets 05:01:07 0° 32° (NNE) 2,987 5.3 -11.0°
